1499839200.25,40119,17.75,74002.0,10.97,-14.15,-17.21,0,*4B
1499839201.47,40120,17.75,74000.0,10.99,-13.69,-16.75,0,*43
1499839202.75,40121,17.75,74002.8,11.01,-14.01,-17.07,0,*4F
1499839204.01,40122,17.75,74006.8,11.01,-14.51,-17.79,0,*40
1499839205.21,40123,17.81,74006.8,11.01,-15.49,-19.03,0,*4A
1499839206.42,40124,17.81,74004.3,11.01,-15.63,-19.17,0,*40
1499839207.64,40125,17.75,74004.5,11.01,-15.39,-18.99,0,*49
1499839208.88,40126,17.81,74008.8,10.99,-15.15,-18.59,0,*48
1499839210.13,40127,17.81,74010.0,10.99,-14.55,-18.07,0,*47
1499839211.37,40128,17.81,74008.8,10.99,-14.69,-18.31,0,*42
1499839212.58,40129,17.75,74008.0,11.01,-15.49,-19.17,0,*45
1499839213.83,40130,17.81,74010.0,10.99,-16.45,-20.19,0,*46
1499839215.03,40131,17.81,74012.0,10.97,-16.03,-19.71,0,*4F
1499839216.28,40132,17.75,74008.3,10.97,-15.85,-19.61,0,*40
1499839217.55,40133,17.81,74012.3,10.95,-15.81,-19.41,0,*45
1499839218.8,40134,17.81,74010.8,10.95,-15.81,-19.47,0,*44
1499839220.05,40135,17.81,74014.0,10.95,-15.71,-19.27,0,*4C
1499839221.3,40136,17.75,74010.3,10.95,-15.49,-18.93,0,*4A
1499839222.5,40137,17.75,74008.5,10.93,-16.41,-19.91,0,*45
1499839223.73,40138,17.81,74008.8,10.93,-16.51,-20.09,0,*40
1499839224.92,40139,17.81,74008.5,10.85,-17.73,-21.09,0,*46
1499839226.17,40140,17.81,74000.3,10.85,-17.45,-20.83,0,*4E
1499839227.39,40141,17.81,74000.3,10.81,-16.83,-20.15,0,*4F
1499839228.58,40142,17.81,74002.0,10.81,-15.67,-18.99,0,*4A
1499839229.81,40143,17.81,74002.3,10.81,-16.03,-19.27,0,*4E
1499839231.08,40144,17.81,74000.0,10.83,-15.85,-19.27,0,*46
1499839232.29,40145,17.81,74002.8,10.81,-15.53,-18.59,0,*46
1499839233.49,40146,17.81,74000.8,10.81,-16.45,-19.75,0,*4E
1499839234.74,40147,17.81,73998.3,10.83,-16.13,-19.13,0,*4E
1499839235.99,40148,17.81,74000.0,10.83,-14.61,-17.55,0,*4A
1499839237.24,40149,17.81,74000.3,10.83,-13.51,-16.51,0,*4A
1499839238.48,40150,17.81,74006.5,10.89,-13.33,-16.31,0,*4A
1499839239.73,40151,17.81,74010.3,10.89,-14.93,-18.01,0,*4B
1499839241.0,40152,17.81,74010.5,10.91,-14.97,-17.97,0,*45
1499839242.2,40153,17.81,74010.3,10.93,-15.53,-18.69,0,*41
1499839243.39,40154,17.81,74010.0,10.93,-15.71,-18.83,0,*42
1499839244.61,40155,17.81,74008.8,10.93,-16.27,-19.47,0,*4A
1499839245.82,40156,17.81,74006.5,10.91,-15.71,-18.83,0,*42
1499839247.08,40157,17.81,74006.5,10.91,-17.35,-20.35,0,*47
1499839248.3,40158,17.75,73998.8,10.85,-18.55,-21.77,0,*43
1499839249.52,40159,17.81,74002.5,10.85,-19.85,-23.13,0,*4E
1499839250.74,40160,17.81,74000.5,10.81,-19.31,-22.41,0,*49
1499839251.99,40161,17.75,74002.0,10.79,-18.59,-21.77,0,*46
1499839253.25,40162,17.81,74000.8,10.75,-18.69,-21.87,0,*45
1499839254.44,40163,17.81,74008.0,10.73,-18.49,-21.73,0,*4B
1499839255.69,40164,17.81,74006.0,10.73,-16.65,-19.85,0,*4E
1499839256.92,40165,17.81,74000.5,10.73,-16.27,-19.37,0,*40
1499839258.15,40166,17.81,74000.3,10.71,-17.49,-20.69,0,*49
1499839259.4,40167,17.75,73998.3,10.69,-17.59,-21.03,0,*4D
1499839260.6,40168,17.81,74006.3,10.69,-16.59,-19.75,0,*49
1499839261.82,40169,17.81,74004.3,10.69,-15.57,-18.65,0,*45
1499839263.05,40170,17.81,74008.8,10.69,-16.75,-19.81,0,*45
1499839264.29,40171,17.81,74008.5,10.69,-17.21,-20.39,0,*4D
1499839265.51,40172,17.81,74008.5,10.69,-17.93,-21.13,0,*4E
1499839266.74,40173,17.81,74008.8,10.69,-18.07,-21.33,0,*4F
1499839267.97,40174,17.81,74008.5,10.67,-18.11,-21.23,0,*40
1499839269.2,40175,17.81,73998.0,10.63,-18.21,-21.53,0,*41
1499839270.42,40176,17.81,73998.3,10.59,-18.35,-21.73,0,*4C
1499839271.65,40177,17.81,74004.0,10.59,-17.45,-20.69,0,*4F
1499839272.86,40178,17.81,74006.5,10.59,-16.89,-20.05,0,*4B
1499839274.11,40179,17.81,74010.3,10.59,-16.17,-19.31,0,*40
1499839275.32,40180,17.81,74006.5,10.59,-16.55,-19.71,0,*44
1499839276.52,40181,17.81,74006.0,10.59,-18.07,-21.43,0,*46
1499839277.72,40182,17.81,74002.3,10.59,-17.31,-20.69,0,*46
1499839278.93,40183,17.81,74000.8,10.59,-17.87,-21.13,0,*46
1499839280.18,40184,17.81,73996.3,10.57,-17.25,-20.43,0,*43
1499839281.41,40185,17.81,73992.3,10.57,-16.79,-20.09,0,*44
1499839282.65,40186,17.81,74000.5,10.59,-16.13,-19.17,0,*40
1499839283.9,40187,17.81,74006.3,10.57,-16.31,-19.37,0,*4D
1499839285.1,40188,17.81,74008.5,10.59,-15.15,-18.21,0,*4F
1499839286.32,40189,17.81,74006.0,10.61,-13.93,-16.97,0,*4E
1499839287.6,40190,17.81,74004.0,10.61,-14.01,-17.11,0,*45
1499839288.83,40191,17.81,74006.3,10.63,-14.11,-17.25,0,*40
1499839290.09,40192,17.81,74010.3,10.67,-14.05,-17.11,0,*45
1499839291.29,40193,17.81,74008.3,10.69,-14.15,-17.31,0,*49
1499839292.52,40194,17.81,74008.5,10.71,-15.15,-18.41,0,*4E
1499839293.77,40195,17.81,74012.3,10.73,-17.03,-20.49,0,*4B
1499839295.0,40196,17.81,74012.8,10.71,-15.53,-18.99,0,*4B
1499839296.22,40197,17.81,74012.0,10.71,-15.67,-18.99,0,*4D
1499839297.45,40198,17.81,73998.0,10.71,-16.75,-20.09,0,*40
1499839298.69,40199,17.81,74002.5,10.71,-16.79,-20.25,0,*43
1499839299.89,40200,17.81,73988.5,10.69,-17.35,-20.73,0,*43
1499839301.15,40201,17.81,73996.8,10.69,-17.93,-21.27,0,*4E
1499839302.38,40202,17.81,73986.3,10.63,-18.93,-22.37,0,*4A
1499839303.63,40203,17.81,73984.3,10.61,-19.65,-23.13,0,*46
1499839304.88,40204,17.81,73986.0,10.57,-19.47,-22.77,0,*47
1499839306.11,40205,17.81,73992.8,10.55,-20.15,-23.75,0,*4A
1499839307.31,40206,17.81,73998.0,10.51,-19.99,-23.39,0,*4B
1499839308.54,40207,17.81,73994.0,10.47,-18.83,-21.97,0,*41
1499839309.75,40208,17.81,73998.5,10.47,-18.45,-21.93,0,*40
1499839310.97,40209,17.81,74000.8,10.41,-18.17,-21.43,0,*4D
1499839312.25,40210,17.81,74004.5,10.41,-18.59,-21.87,0,*47
1499839313.53,40211,17.81,74004.3,10.41,-17.55,-20.79,0,*45
1499839314.8,40212,17.81,74002.0,10.41,-16.65,-19.85,0,*4D
1499839316.08,40213,17.81,74002.0,10.41,-16.65,-19.81,0,*48
1499839317.34,40214,17.81,74010.0,10.45,-16.37,-19.61,0,*42
1499839318.57,40215,17.81,74006.8,10.41,-16.83,-20.09,0,*4C
1499839319.82,40216,17.81,74008.5,10.45,-15.43,-18.45,0,*47
1499839321.07,40217,17.81,74010.3,10.45,-15.89,-18.99,0,*41
1499839322.31,40218,17.81,74004.8,10.45,-16.93,-20.15,0,*49
1499839323.56,40219,17.81,74004.5,10.45,-17.07,-20.29,0,*4B
1499839324.84,40220,17.81,74006.0,10.41,-17.11,-20.35,0,*4F
1499839326.09,40221,17.81,74008.8,10.45,-17.07,-20.29,0,*40
1499839327.32,40222,17.81,74002.8,10.41,-17.73,-21.09,0,*47
1499839328.54,40223,17.81,74008.5,10.41,-18.17,-21.43,0,*45
1499839329.77,40224,17.81,74004.0,10.41,-16.83,-20.09,0,*4E
1499839331.0,40225,17.81,74000.0,10.41,-17.31,-20.63,0,*4B
1499839332.22,40226,17.81,74000.8,10.37,-18.25,-21.73,0,*43
1499839333.45,40227,17.81,73998.0,10.37,-18.65,-22.07,0,*46
1499839334.71,40228,17.81,73998.5,10.37,-17.73,-20.99,0,*44
1499839335.97,40229,17.81,74000.5,10.35,-17.17,-20.39,0,*4F
1499839337.23,40230,17.81,73998.3,10.35,-17.07,-20.29,0,*47
1499839338.48,40231,17.81,74002.0,10.33,-17.03,-20.19,0,*47
1499839339.71,40232,17.81,73992.3,10.33,-17.21,-20.43,0,*4B
1499839340.97,40233,17.81,73996.8,10.35,-17.07,-20.39,0,*45
1499839342.21,40234,17.81,73992.0,10.33,-17.21,-20.43,0,*4D
1499839343.46,40235,17.81,73992.5,10.33,-17.93,-21.23,0,*42
1499839344.73,40236,17.81,73992.5,10.31,-17.83,-21.23,0,*42
1499839345.99,40237,17.81,73984.3,10.31,-17.31,-20.49,0,*47
1499839347.22,40238,17.81,73988.5,10.31,-16.97,-19.99,0,*42
1499839348.44,40239,17.81,73994.3,10.31,-15.95,-19.03,0,*41
1499839349.7,40240,17.81,73998.3,10.35,-15.29,-18.31,0,*4C
1499839350.92,40241,17.81,74000.5,10.35,-15.15,-18.21,0,*43
1499839352.17,40242,17.81,73996.5,10.35,-15.85,-18.99,0,*4A
1499839353.4,40243,17.81,73998.5,10.35,-15.63,-18.73,0,*47
1499839354.6,40244,17.81,74000.0,10.39,-15.71,-18.79,0,*45
1499839355.79,40245,17.81,74002.3,10.39,-15.95,-19.07,0,*46
1499839356.99,40246,17.81,74000.8,10.39,-15.71,-18.79,0,*47
1499839358.24,40247,17.81,74006.3,10.41,-16.23,-19.03,0,*41
1499839359.46,40248,17.81,74006.0,10.45,-15.29,-18.41,0,*44
1499839360.67,40249,17.81,74004.5,10.47,-14.89,-17.83,0,*4D
1499839361.9,40250,17.81,74004.3,10.47,-14.29,-17.25,0,*43
1499839363.17,40251,17.81,74002.5,10.49,-14.93,-17.93,0,*40
1499839364.46,40252,17.81,73996.0,10.49,-14.55,-17.45,0,*42
1499839365.7,40253,17.81,73996.3,10.51,-14.11,-17.07,0,*4C
1499839366.97,40254,17.81,74002.0,10.53,-14.93,-17.97,0,*4A
1499839368.22,40255,17.81,73998.8,10.55,-14.75,-17.63,0,*4E
1499839369.45,40256,17.81,73998.3,10.57,-14.33,-17.35,0,*4E
1499839370.71,40257,17.81,73998.3,10.57,-15.29,-18.31,0,*4E
1499839371.91,40258,17.81,74000.5,10.59,-15.07,-18.07,0,*46
1499839373.19,40259,17.81,74004.3,10.61,-13.87,-17.03,0,*49
1499839374.44,40260,17.81,74004.8,10.61,-14.79,-18.21,0,*4A
1499839375.63,40261,17.81,73998.8,10.63,-17.73,-21.43,0,*4E
1499839376.91,40262,17.81,73998.3,10.61,-16.27,-19.57,0,*41
1499839378.14,40263,17.81,74002.5,10.59,-16.17,-19.47,0,*49
1499839379.42,40264,17.81,74000.3,10.61,-16.13,-19.27,0,*47
1499839380.64,40265,17.81,74000.3,10.59,-15.57,-18.83,0,*41
1499839381.88,40266,17.81,74006.8,10.61,-15.81,-19.07,0,*4F
1499839383.1,40267,17.81,74006.5,10.59,-15.43,-18.49,0,*40
1499839384.33,40268,17.81,74008.5,10.61,-15.53,-18.65,0,*4B
1499839385.57,40269,17.81,74012.8,10.61,-16.23,-19.51,0,*48
1499839386.82,40270,17.81,74010.0,10.61,-17.31,-20.49,0,*41
1499839388.03,40271,17.81,74012.0,10.61,-15.99,-19.07,0,*40
1499839389.27,40272,17.81,74006.8,10.61,-15.81,-18.79,0,*42
1499839390.54,40273,17.81,74002.5,10.63,-17.17,-20.49,0,*44
1499839391.76,40274,17.81,74006.0,10.59,-17.49,-20.79,0,*42
1499839392.97,40275,17.81,74004.0,10.59,-16.45,-19.71,0,*4C
1499839394.19,40276,17.81,74008.5,10.57,-17.69,-20.93,0,*48
1499839395.43,40277,17.81,74014.8,10.55,-17.83,-21.03,0,*47
1499839396.63,40278,17.81,74006.0,10.51,-18.65,-21.93,0,*42
1499839397.86,40279,17.81,74002.3,10.51,-16.69,-19.75,0,*42
1499839399.1,40280,17.81,74002.5,10.51,-17.21,-20.39,0,*4B
1499839400.36,40281,17.81,74004.3,10.51,-17.17,-20.35,0,*43
1499839401.61,40282,17.81,74004.0,10.49,-16.69,-19.91,0,*45
1499839402.84,40283,17.81,74000.8,10.49,-17.31,-20.69,0,*45
1499839404.13,40284,17.81,74000.0,10.49,-17.17,-20.49,0,*44
1499839405.41,40285,17.81,74006.5,10.49,-16.27,-19.57,0,*42
1499839406.65,40286,17.81,74002.5,10.49,-16.89,-20.09,0,*44
1499839407.91,40287,17.81,74004.0,10.49,-16.41,-19.61,0,*45
1499839409.14,40288,17.81,74000.0,10.47,-16.17,-19.37,0,*44
1499839410.37,40289,17.81,73998.3,10.49,-16.83,-20.05,0,*4D
1499839411.61,40290,17.81,73998.5,10.47,-16.59,-19.65,0,*40
1499839412.83,40291,17.81,73992.3,10.49,-15.71,-18.65,0,*47
1499839414.06,40292,17.81,73992.8,10.47,-15.11,-17.97,0,*4E
1499839415.31,40293,17.81,73996.3,10.49,-14.65,-18.01,0,*43
1499839416.54,40294,17.81,74004.3,10.51,-15.71,-19.27,0,*4C
1499839417.79,40295,17.81,74002.8,10.53,-16.51,-19.71,0,*4D
1499839419.02,40296,17.81,74004.5,10.53,-15.67,-18.73,0,*4B
1499839420.29,40297,17.81,74004.0,10.53,-15.21,-18.31,0,*4E
1499839421.54,40298,17.81,74006.8,10.53,-15.63,-18.59,0,*49
1499839422.79,40299,17.81,74010.5,10.53,-14.33,-17.41,0,*4A
1499839424.01,40300,17.81,74004.5,10.55,-14.61,-17.79,0,*41
1499839425.26,40301,17.81,74008.3,10.57,-15.35,-18.41,0,*46
1499839426.46,40302,17.81,74010.8,10.59,-15.53,-18.41,0,*4B
1499839427.71,40303,17.81,74010.3,10.57,-15.49,-18.55,0,*4A
1499839428.91,40304,17.81,74006.0,10.59,-16.03,-19.13,0,*4D
1499839430.13,40305,17.81,74000.8,10.59,-15.81,-18.83,0,*4D
1499839431.34,40306,17.81,74006.8,10.59,-15.95,-19.13,0,*43
1499839432.53,40307,17.81,74010.3,10.59,-15.25,-18.25,0,*4D
1499839433.78,40308,17.81,74004.0,10.61,-15.81,-18.73,0,*44
1499839435.02,40309,17.81,74004.0,10.61,-14.89,-17.93,0,*4D
1499839436.28,40310,17.81,74004.8,10.59,-14.83,-17.79,0,*40
1499839437.56,40311,17.81,74006.8,10.61,-14.51,-17.45,0,*4A
1499839438.79,40312,17.81,74008.8,10.67,-14.19,-17.21,0,*41
1499839440.02,40313,17.81,74008.0,10.67,-13.83,-16.79,0,*48
1499839441.24,40314,17.81,74010.0,10.67,-14.75,-17.69,0,*41
1499839442.51,40315,17.81,74006.5,10.71,-14.79,-17.79,0,*4A
1499839443.74,40316,17.81,74004.3,10.71,-15.67,-18.69,0,*49
1499839444.99,40317,17.81,74004.5,10.71,-15.43,-18.41,0,*44
1499839446.24,40318,17.81,74006.5,10.71,-15.39,-18.49,0,*4E
1499839447.47,40319,17.81,74002.0,10.71,-15.71,-18.73,0,*4A
1499839448.76,40320,17.81,74000.5,10.71,-16.17,-19.57,0,*44
1499839449.99,40321,17.81,73998.3,10.71,-16.59,-19.71,0,*4B
1499839451.24,40322,17.81,73996.5,10.73,-17.55,-20.83,0,*40
1499839452.44,40323,17.81,74002.5,10.69,-16.75,-19.95,0,*44
1499839453.68,40324,17.81,74000.8,10.67,-17.07,-20.39,0,*45
1499839454.89,40325,17.81,74000.8,10.63,-15.81,-19.07,0,*4B
1499839456.14,40326,17.81,74000.5,10.67,-16.13,-19.23,0,*42
1499839457.37,40327,17.81,74004.8,10.67,-16.09,-19.47,0,*4A
1499839458.61,40328,17.81,74006.8,10.63,-15.81,-19.23,0,*40
1499839459.83,40329,17.81,74004.3,10.67,-15.49,-18.55,0,*41
1499839461.05,40330,17.81,74004.0,10.69,-14.93,-17.73,0,*4A
1499839462.29,40331,17.81,74002.3,10.69,-14.01,-16.75,0,*47
1499839463.55,40332,17.81,74006.8,10.71,-13.65,-17.07,0,*4C
1499839464.8,40333,17.81,74004.5,10.71,-14.23,-17.93,0,*45
1499839466.04,40334,17.81,74014.3,10.71,-14.11,-17.83,0,*42
1499839467.24,40335,17.81,74014.3,10.73,-14.37,-18.07,0,*46
1499839468.44,40336,17.81,74010.8,10.73,-15.63,-18.99,0,*42
1499839469.66,40337,17.81,74014.0,10.73,-16.97,-20.35,0,*46
1499839470.92,40338,17.81,74012.5,10.71,-17.07,-20.39,0,*4F
1499839472.13,40339,17.81,74008.3,10.69,-16.79,-19.95,0,*43
1499839473.37,40340,17.81,74006.8,10.71,-15.89,-19.03,0,*47
1499839474.62,40341,17.81,74008.0,10.71,-14.97,-18.07,0,*4D
1499839475.85,40342,17.81,74010.5,10.71,-15.11,-18.11,0,*46
1499839477.1,40343,17.81,74012.5,10.71,-15.43,-18.41,0,*45
1499839478.35,40344,17.81,74014.5,10.75,-15.35,-18.49,0,*4F
1499839479.55,40345,17.81,74012.0,10.73,-15.75,-18.69,0,*4E
1499839480.77,40346,17.88,74012.5,10.73,-15.67,-18.93,0,*4B
1499839482.02,40347,17.81,74008.0,10.75,-14.93,-17.87,0,*4C
1499839483.26,40348,17.81,74006.3,10.75,-15.53,-18.59,0,*42
1499839484.5,40349,17.81,74002.5,10.75,-15.99,-19.27,0,*4D
1499839485.78,40350,17.81,74000.0,10.75,-16.27,-19.57,0,*44
1499839487.03,40351,17.81,74000.0,10.75,-16.27,-19.51,0,*43
1499839488.26,40352,17.81,73998.5,10.75,-16.37,-19.51,0,*41
1499839489.48,40353,17.81,73998.0,10.73,-16.65,-19.71,0,*43
1499839490.7,40354,17.81,73996.3,10.73,-16.23,-19.51,0,*44
1499839491.93,40355,17.81,73992.0,10.73,-16.13,-19.37,0,*46
1499839493.16,40356,17.81,73996.3,10.73,-16.13,-19.37,0,*45
1499839494.35,40357,17.81,73994.0,10.73,-15.95,-18.99,0,*4C
1499839495.58,40358,17.81,73992.5,10.73,-16.23,-19.37,0,*48
1499839496.84,40359,17.81,73992.0,10.71,-17.17,-20.39,0,*49
1499839498.08,40360,17.81,73998.5,10.69,-17.21,-20.39,0,*4F
1499839499.31,40361,17.81,73998.0,10.71,-16.79,-20.05,0,*44
1499839500.54,40362,17.81,74004.3,10.69,-16.45,-19.61,0,*49
1499839501.76,40363,17.81,74002.0,10.69,-15.85,-19.03,0,*43
1499839502.98,40364,17.81,74000.3,10.69,-15.67,-18.55,0,*4A
1499839504.2,40365,17.81,74004.8,10.69,-14.97,-18.07,0,*42
1499839505.47,40366,17.81,74002.0,10.71,-14.51,-17.35,0,*4C
1499839506.75,40367,17.81,74000.3,10.71,-14.51,-17.59,0,*47
1499839508.0,40368,17.81,74000.5,10.73,-14.79,-17.79,0,*42
1499839509.22,40369,17.81,73998.3,10.73,-14.65,-17.55,0,*40
1499839510.41,40370,17.81,73996.0,10.73,-15.25,-18.17,0,*44
1499839511.7,40371,17.81,73992.5,10.75,-14.47,-17.41,0,*4A
1499839512.95,40372,17.81,73992.5,10.79,-13.23,-16.13,0,*46
1499839514.23,40373,17.81,73992.8,10.79,-13.01,-15.89,0,*47
1499839515.49,40374,17.81,73994.3,10.83,-13.83,-16.75,0,*4F
1499839516.75,40375,17.81,73996.0,10.83,-13.33,-16.51,0,*43
1499839518.0,40376,17.81,73996.5,10.85,-12.65,-15.85,0,*4E
1499839519.25,40377,17.81,74002.8,10.89,-13.33,-17.41,0,*4B
1499839520.47,40378,17.81,73998.0,10.89,-14.89,-18.89,0,*49
1499839521.67,40379,17.81,73996.3,10.85,-16.55,-20.29,0,*46
1499839522.9,40380,17.81,74002.8,10.85,-16.75,-20.35,0,*4F
1499839524.15,40381,17.81,73998.5,10.83,-16.09,-19.51,0,*4B
1499839525.37,40382,17.81,74000.8,10.81,-16.65,-20.09,0,*47
1499839526.65,40383,17.81,74000.8,10.79,-16.27,-19.41,0,*41
1499839527.92,40384,17.81,74000.3,10.79,-15.39,-18.55,0,*4E
1499839529.11,40385,17.81,74006.8,10.77,-15.75,-19.07,0,*4F
1499839530.34,40386,17.81,74004.8,10.77,-15.57,-18.59,0,*46
1499839531.56,40387,17.81,74010.8,10.77,-15.63,-18.89,0,*4D
1499839532.8,40388,17.81,74006.8,10.79,-15.01,-18.21,0,*4A
1499839534.02,40389,17.81,74006.3,10.79,-14.65,-17.69,0,*4B
1499839535.27,40390,17.81,74008.0,10.81,-14.51,-17.59,0,*40
1499839536.5,40391,17.81,74008.8,10.81,-15.43,-18.73,0,*44
1499839537.69,40392,17.81,74008.5,10.81,-15.53,-18.83,0,*49
1499839538.91,40393,17.81,74008.0,10.81,-15.01,-18.07,0,*43
1499839540.1,40394,17.81,74010.8,10.81,-15.71,-18.99,0,*44
1499839541.34,40395,17.81,74008.8,10.81,-14.97,-17.97,0,*4D
1499839542.59,40396,17.81,74008.0,10.83,-13.83,-16.89,0,*40
1499839543.81,40397,17.81,74006.3,10.85,-14.61,-17.63,0,*49
1499839545.06,40398,17.81,74004.8,10.89,-14.93,-17.97,0,*4C
1499839546.3,40399,17.81,74010.8,10.89,-15.01,-18.01,0,*47
1499839547.58,40400,17.81,74008.3,10.91,-14.01,-17.03,0,*45
1499839548.78,40401,17.81,74006.3,10.89,-14.29,-17.35,0,*42
1499839550.06,40402,17.81,74006.3,10.91,-14.43,-17.45,0,*43
1499839551.28,40403,17.81,74006.5,10.91,-14.37,-17.31,0,*42
1499839552.48,40404,17.81,74006.0,10.93,-15.53,-18.45,0,*48
1499839553.7,40405,17.81,74006.5,10.93,-14.65,-17.63,0,*46
1499839554.92,40406,17.81,74004.3,10.95,-14.33,-17.31,0,*47
1499839556.16,40407,17.81,74004.5,10.95,-13.69,-16.55,0,*4D
1499839557.38,40408,17.88,74010.8,10.97,-13.55,-16.51,0,*4B
1499839558.63,40409,17.81,74004.0,10.99,-14.37,-17.41,0,*47
1499839559.87,40410,17.81,74006.0,11.01,-14.97,-17.93,0,*4A
1499839561.09,40411,17.81,74004.8,10.99,-15.11,-18.11,0,*41
1499839562.35,40412,17.81,74004.8,10.99,-14.23,-17.21,0,*4E
1499839563.61,40413,17.81,74004.8,11.01,-14.83,-17.97,0,*48
1499839564.87,40414,17.81,74006.0,11.01,-14.43,-17.55,0,*4D
1499839566.08,40415,17.81,74006.8,11.01,-14.61,-17.83,0,*47
1499839567.32,40416,17.81,74006.3,11.03,-14.65,-17.87,0,*46
1499839568.58,40417,17.81,74006.5,11.03,-15.43,-18.65,0,*41
1499839569.8,40418,17.81,74004.8,11.01,-15.49,-18.89,0,*44
1499839571.04,40419,17.81,74002.5,11.01,-15.43,-18.73,0,*4A
1499839572.26,40420,17.88,74006.5,10.99,-15.75,-18.99,0,*41
1499839573.49,40421,17.81,74006.0,10.99,-15.49,-18.89,0,*4E
1499839574.74,40422,17.81,74006.8,10.99,-15.43,-18.73,0,*42
1499839575.98,40423,17.81,74004.8,11.01,-14.75,-18.11,0,*43
1499839577.22,40424,17.81,74004.5,10.99,-15.15,-18.55,0,*43
1499839578.46,40425,17.81,74008.0,10.99,-14.75,-18.21,0,*46
1499839579.74,40426,17.88,74010.0,10.99,-14.51,-17.97,0,*41
1499839581.02,40427,17.88,74008.0,10.99,-14.83,-18.31,0,*4C
1499839582.3,40428,17.81,74010.0,10.99,-14.51,-17.93,0,*4B
1499839583.54,40429,17.81,74006.8,10.99,-14.55,-18.25,0,*4C
1499839584.78,40430,17.81,74010.0,10.99,-14.75,-18.45,0,*40
1499839586.01,40431,17.88,74010.8,10.99,-15.75,-19.37,0,*44
1499839587.26,40432,17.88,74010.8,10.99,-16.13,-19.75,0,*42
1499839588.51,40433,17.81,74006.5,10.95,-15.57,-19.13,0,*4C
1499839589.76,40434,17.81,74002.5,10.95,-14.83,-18.17,0,*46
1499839591.0,40435,17.81,74004.0,10.97,-15.01,-18.31,0,*4A
1499839592.2,40436,17.81,74002.8,10.97,-14.65,-17.87,0,*48
1499839593.44,40437,17.81,74000.8,10.97,-14.05,-17.35,0,*46
1499839594.66,40438,17.81,74000.8,10.97,-14.33,-17.45,0,*4B
1499839595.87,40439,17.81,74002.8,10.99,-15.11,-18.45,0,*4A
1499839597.12,40440,17.81,74002.0,10.99,-15.85,-19.13,0,*4B
1499839598.37,40441,17.81,74004.0,10.99,-15.85,-19.17,0,*4E
1499839599.62,40442,17.81,74008.0,10.99,-14.89,-17.97,0,*46
1499839600.86,40443,17.81,74004.0,10.97,-14.79,-18.01,0,*46
1499839602.06,40444,17.88,74004.5,10.97,-15.15,-18.17,0,*4D
1499839603.3,40445,17.88,74000.0,10.99,-15.01,-18.21,0,*42
1499839604.54,40446,17.88,73998.3,10.99,-14.75,-17.69,0,*40
1499839605.8,40447,17.81,74000.3,11.01,-14.55,-17.63,0,*49
1499839607.08,40448,17.81,74002.5,10.99,-14.51,-17.55,0,*47
1499839608.3,40449,17.81,73996.0,10.99,-15.49,-18.73,0,*45
1499839609.52,40450,17.88,74000.8,11.01,-15.89,-18.99,0,*45
1499839610.76,40451,17.88,74002.5,10.99,-15.63,-18.89,0,*41
1499839612.01,40452,17.81,73998.8,10.99,-16.03,-19.27,0,*42
1499839613.22,40453,17.81,73996.5,10.99,-15.11,-18.21,0,*44
1499839614.46,40454,17.81,73992.3,11.01,-14.89,-17.97,0,*41
1499839615.66,40455,17.81,73994.8,11.01,-15.49,-18.69,0,*43
1499839616.89,40456,17.81,73998.0,11.01,-15.29,-18.55,0,*49
1499839618.13,40457,17.81,74004.8,11.01,-15.89,-19.17,0,*45
1499839619.36,40458,17.81,74006.8,11.01,-15.89,-18.99,0,*4D
1499839620.6,40459,17.88,74006.3,10.99,-15.01,-18.07,0,*4B
1499839621.85,40460,17.81,74004.5,10.99,-14.43,-17.35,0,*48
1499839623.1,40461,17.81,74006.3,11.03,-13.51,-16.55,0,*48
1499839624.34,40462,17.88,74006.5,11.05,-13.19,-16.13,0,*43
1499839625.56,40463,17.81,74006.3,11.05,-13.65,-16.59,0,*47
1499839626.83,40464,17.81,74004.0,11.05,-14.05,-17.11,0,*4C
1499839628.09,40465,17.88,74006.5,11.07,-13.87,-16.83,0,*48
1499839629.33,40466,17.88,74008.0,11.13,-14.29,-17.25,0,*40
1499839630.62,40467,17.88,74008.5,11.15,-14.05,-17.11,0,*4E
1499839631.85,40468,17.88,74008.8,11.13,-14.61,-17.63,0,*40
1499839633.09,40469,17.81,74006.5,11.15,-13.55,-16.55,0,*43
1499839634.38,40470,17.88,74008.0,11.15,-13.37,-16.27,0,*4A
1499839635.62,40471,17.81,74010.5,11.17,-13.23,-16.17,0,*4F
1499839636.89,40472,17.81,74010.0,11.19,-12.93,-15.89,0,*4C
1499839638.13,40473,17.88,74008.0,11.21,-12.97,-15.89,0,*42
1499839639.39,40474,17.81,74006.0,11.25,-12.79,-15.81,0,*49
1499839640.65,40475,17.88,74010.8,11.25,-12.53,-15.57,0,*4B
1499839641.91,40476,17.81,74006.0,11.27,-13.07,-16.13,0,*49
1499839643.17,40477,17.88,74006.5,11.31,-14.33,-17.55,0,*4C
1499839644.44,40478,17.88,74008.8,11.31,-14.19,-17.25,0,*4C
1499839645.69,40479,17.88,74008.0,11.31,-13.15,-16.23,0,*41
1499839646.93,40480,17.81,74006.8,11.35,-12.79,-15.67,0,*4B
1499839648.2,40481,17.88,74012.5,11.39,-12.35,-15.39,0,*45
1499839649.44,40482,17.88,74010.8,11.39,-13.51,-16.65,0,*4F
1499839650.72,40483,17.88,74010.3,11.41,-13.33,-16.27,0,*43
1499839651.98,40484,17.81,74010.0,11.41,-14.33,-17.41,0,*42
1499839653.2,40485,17.88,74008.5,11.41,-15.63,-18.83,0,*46
1499839654.45,40486,17.88,74006.3,11.39,-15.35,-18.59,0,*4E
1499839655.67,40487,17.88,74008.3,11.39,-15.63,-18.73,0,*44
1499839656.91,40488,17.88,74006.8,11.39,-14.51,-17.69,0,*4F
1499839658.14,40489,17.88,74008.8,11.39,-13.87,-16.89,0,*4D
1499839659.38,40490,17.81,74004.8,11.41,-13.73,-16.79,0,*4E
1499839660.64,40491,17.81,74004.0,11.41,-14.37,-17.59,0,*4B
1499839661.93,40492,17.81,74004.3,11.41,-14.51,-17.59,0,*48
1499839663.18,40493,17.88,74006.8,11.41,-13.87,-16.89,0,*49
1499839664.46,40494,17.88,74006.8,11.41,-14.75,-17.93,0,*4E
1499839665.69,40495,17.81,74000.8,11.41,-15.49,-18.73,0,*40
1499839666.96,40496,17.88,74000.3,11.39,-16.27,-19.57,0,*40
1499839668.22,40497,17.81,73998.8,11.39,-17.79,-21.23,0,*43
1499839669.46,40498,17.81,73996.5,11.35,-17.49,-20.83,0,*48
1499839670.67,40499,17.81,73992.8,11.35,-16.89,-20.05,0,*4A
1499839671.91,40500,17.81,73990.5,11.29,-18.31,-21.73,0,*4B
1499839673.14,40501,17.88,73994.8,11.27,-17.69,-20.93,0,*49
1499839674.38,40502,17.88,73994.0,11.25,-17.63,-20.89,0,*49
1499839675.64,40503,17.88,73996.5,11.23,-17.93,-21.17,0,*47
1499839676.89,40504,17.81,73990.0,11.21,-17.97,-21.39,0,*4A
1499839678.14,40505,17.88,73996.5,11.17,-17.63,-21.03,0,*4C
1499839679.38,40506,17.88,73994.8,11.17,-17.49,-21.03,0,*47
1499839680.65,40507,17.88,73996.3,11.15,-17.49,-20.83,0,*4D
1499839681.86,40508,17.88,74002.5,11.13,-17.35,-20.73,0,*40
1499839683.11,40509,17.88,73996.3,11.13,-17.17,-20.43,0,*42
1499839684.38,40510,17.88,74000.5,11.11,-17.07,-20.43,0,*49
1499839685.65,40511,17.81,73996.5,11.07,-17.25,-20.43,0,*4F
1499839686.91,40512,17.81,73990.5,11.07,-15.95,-19.23,0,*49
1499839688.15,40513,17.88,73996.5,11.07,-16.97,-20.29,0,*49
1499839689.41,40514,17.88,73998.3,11.03,-17.31,-20.53,0,*4A
1499839690.67,40515,17.88,73998.3,11.01,-17.55,-20.83,0,*46
1499839691.88,40516,17.88,74006.8,11.01,-18.69,-22.11,0,*4C
1499839693.12,40517,17.88,74004.3,10.99,-17.79,-20.69,0,*4E
1499839694.39,40518,17.88,74004.3,10.99,-16.17,-19.31,0,*4F